COSMOS 1393

Satellite information

Favourite Embed

Satellite Type and Status

PAYLOADIN ORBIT

Key statistics

Satellite COSMOS 1393 at a glance.

Uptime

15813

Days in orbit

Revolutions

≈ 12.5

Per day

Orbit

LEO

Low Earth Orbit

Inclination

74.0

Latest

Satellite identification and parameters

Extended collection of information and parameters for COSMOS 1393.

Object identification

Identified? True

Debris? False

Object name: COSMOS 1393

International designator: 1982-073F

Object number (NORAD): 13380

Object ID (CCSDS): 13380

Country: COMMONWEALTH OF INDEPENDENT STATES (CIS)

Current information (Y/N): Y

RCS size: MEDIUM

Orbital parameters

Period: 115.453 minutes

Inclination: 74.0178 deg

SMA: 7854.109 km

Apoapsis: 1482.867 km

Periapsis: 1469.082 km

RAAN: 4.6474 deg

Eccentricy: 0.0008776

Argument of periapsis: 336.6641 deg

Mean anomaly: 94.7154 deg

Mean motion: 12.47261011 rev/day

Mean motion (dot): 0.00000004 rev/day2

B* drag term: 0.00013504 1/REarth

Two-line elements (TLE)

Creation date: Nov. 4, 2025, 11:56 p.m.

Reference frame: TEME

Reference center: EARTH

Epoch: Nov. 4, 2025, 1:56 p.m. UTC

TLE line 0: 0 COSMOS 1393

TLE line 1: 1 13380U 82073F 25308.58059241 .00000004 00000-0 13504-3 0 9997

TLE line 2: 2 13380 74.0178 4.6474 0008776 336.6641 94.7154 12.47261011971132

Live tracking on map

Real-time ground track for satellite COSMOS 1393.

In-orbit conjunctions

There are no conjunctions computed for COSMOS 1393, at the moment. Check back to stay up to date, as we update our databases every day.

Go to all conjunctions

Associated space launch

Military communications satellites

COSMOS 1393 was lifted into orbit during the mission ‘Kosmos-3M | Strela-1M 241-248’, on board a Kosmos-3M space rocket.

The launch took place on July 21, 1982, 6:31 a.m. from 132/2.

For more information about the launch, click the button.

Launch to space Kosmos-3M | Strela-1M 241-248
Kosmos-3M | Strela-1M 241-248

Agency: N/A

Status: Launch Successful

Launch date: July 21, 1982, 6:31 a.m. UTC

Rocket: Kosmos-3M

Launch pad: 132/2

Location: Plesetsk Cosmodrome, Russian Federation

...

Latest news about this satellite

There are no fresh news available about this satellite. Check back as we update our databases every day.


Newsletter sign-up

Weekly statistics, charts and insights to help you stay on top of the space industry.